Probability
0 0 0 0 0 0 0 0 0 0 0 0 0 0 0 0 0 0 0 0 0 0 0 0 0 0 0 0 0 0 0 0 0 0 0 0 0 0
0 0 0 0 0 0 0 0 0 0 0 0 0 0 0 0 0 0 0 0 0 0 0 0 0 0 0 0 0 0 0 0 0 0 0 0 0 0
0 0 0 0 0 0 0 0 0 0 0 0 0 0 0 0 0 0 0 0 0 0 0 0 0 0 0 0 0 0 0 0 0 0 0 0 0 0
0 0 0 0 0 0 0 0 0 0 0 0 0 0 0 0 0 0 0 0 0 0 0 0 0 0 0 0 0 0 0 0 0 0 0 0 0 0
0 0 0 0 0 0 0 0 0 0 0 0 0 0 0 0 0 0 0 0 0 0 0 0 0 0 0 0 0 0 0 0 0 0 0 0 0 0
0 0 0 0 0 0 0 0 0 0 0 0 0 0 0 0 0 0 0 0 0 0 0 0 0 0 0 0 0 0 0 0 0 0 0 0 0 0
0 0 0 0 0 0 0 0 0 0 0 0 0 0 0 0 0 0 0 0 0 0 0 0 0 0 0 0 0 0 0 0 0 0 0 0 0 0
0 0 0 0 0 0 0 0 0 0 0 0 0 0 0 0 0 0 0 0 0 0 0 0 0 0 0 0 0 0 0 0 0 0 0 0 0 0
0 0 0 0 0 0 0 0 0 0 0 0 0 0 0 0 0 0 0 0 0 0 0 0 0 0 0 0 0 0 0 0 0 0 0 0 0 0
0 0 0 0 0 0 0 0 0 0 0 0 0 0 0 0 0 0 0 0 0 0 0 0 0 0 0 0 0 0 0 0 0 0 0 0 0 0
0 0 0 0 0 0 0 0 0 0 0 0 0 0 0 0 0 0 0 0 0 0 0 0 0 0 0 0 0 0 0 0 0 0 0 0 0 0
0 0 0 0 0 0 0 0 0 0 0 0 0 0 0 0 0 0 0 0 0 0 0 0 0 0 0 0 0 0 0 0 0 0 0 0 0 0
0 0 0 0 0 0 0 0 0 0 0 0 0 0 0 0 0 0 0 0 0 0 0 0 0 0 0 0 0 0 0 0 0 0 0 0 0 0
0 0 0 0 0 0 0 0 0 0 0 0 0 0 0 0 0 0 0 0 0 0 0 0 0 0 0 0 0 0 0 0 0 0 0 0 0 0
0 0 0 0 0 0 0 0 0 0 0 0 0 0 0 0 0 0 0 0 0 0 0 0 0 0 0 0 0 0 0 0 0 0 0 0 0 0
0 0 0 0 0 0 0 0 0 0 0 0 0 0 0 0 0 0 0 0 0 0 0 0 0 0 0 0 0 0 0 0 0 0 0 0 0 0
0 0 0 0 0 0 0 0 0 0 0 0 0 0 0 0 0 0 0 0 0 0 0 0 0 0 0 0 0 0 0 0 0 0 0 0 0 0
0 0 0 0 0 0 0 0 0 0 0 0 0 0 0 0 0 0 0 0 0 0 0 0 0 0 0 0 0 0 0 0 0 0 0 0 0 0
0 0 0 0 0 0 0 0 0 0 0 0 0 0 0 0 0 0 0 0 0 0 0 0 0 0 0 0 0 0 0 0 0 0 0 0 0 0
0 0 0 0 0 0 0 0 0 0 0 0 0 0 0 0 0 0 0 0 0 0 0 0 0 0 0 0 0 0 0 0 0 0 0 0 0 0
0 0 0 0 0 0 0 0 0 0 0 0 0 0 0 0 0 0 0 0 0 0 0 0 0 0 0 0 0 0 0 0 0 0 0 0 0 0
0 0 0 0 0 0 0 0 0 0 0 0 0 0 0 0 0 0 0 0 0 0 0 0 0 0 0 0 0 0 0 0 0 0 0 0 0 0
0 0 0 0 0 0 0 0 0 0 0 0 0 0 0 0 0 0 0 0 0 0 0 0 0 0 0 0 0 0 0 0 0 0 0 0 0 0
Wind_Speed
4 5 4 4 4 4 4 4 5 6 7 4 3 3 3 4 6 5 5 9 11 10 10 9 9 9 9 9 9 9 8 9 9 9 9 9 9 10
3 4 5 4 4 3 4 4 4 6 7 4 4 3 4 5 7 5 5 9 9 10 9 8 8 9 8 8 8 8 8 9 9 9 9 9 9 10
4 5 5 5 4 4 4 4 5 5 8 6 3 3 4 4 5 4 4 4 5 9 10 9 9 9 8 8 8 8 7 8 9 9 9 9 9 10
5 5 6 5 5 5 4 5 5 5 6 8 6 3 4 4 4 4 4 4 3 7 9 9 9 8 8 7 7 7 7 7 8 8 8 8 8 9
5 5 6 5 6 5 5 5 5 5 5 6 6 4 3 3 4 4 4 3 4 5 7 8 8 8 7 7 7 7 7 6 7 7 7 8 8 9
5 5 6 6 7 7 6 6 5 6 5 5 5 4 3 3 2 3 4 3 4 3 5 6 7 7 7 7 7 7 6 6 7 7 7 7 8 8
5 5 5 7 9 7 6 5 5 5 5 5 5 4 4 3 3 3 4 4 4 3 3 3 3 3 4 5 6 6 6 6 7 7 7 7 7 7
5 5 6 7 8 10 10 9 7 6 6 5 5 5 6 5 3 3 3 3 4 2 2 3 2 3 3 3 5 6 7 7 7 7 7 7 7 8
4 5 5 6 8 6 7 9 8 9 8 6 6 7 6 5 4 4 4 4 5 3 2 4 2 3 3 4 6 6 7 7 7 7 7 7 7 7
5 5 5 6 6 6 6 5 5 5 6 5 5 5 5 4 5 5 5 3 3 2 2 3 2 3 3 3 6 7 7 7 7 7 8 7 7 7
5 5 5 5 8 8 6 5 5 5 6 6 7 6 6 6 4 2 2 2 3 3 1 2 2 2 2 3 4 6 7 7 8 8 8 7 6 6
4 5 7 7 9 8 5 4 5 5 4 4 4 5 4 4 5 3 3 3 3 3 2 1 1 1 2 2 2 2 4 6 8 8 8 7 6 3
4 4 4 8 9 8 6 4 5 5 3 3 3 3 2 2 2 2 2 3 3 3 2 2 2 2 2 3 3 3 3 3 3 4 6 6 5 3
4 4 4 8 8 8 5 5 7 5 2 2 2 3 3 3 2 2 2 2 3 4 4 3 3 3 3 3 3 2 2 3 3 3 2 5 5 5
4 6 7 7 7 6 6 7 5 3 2 2 3 3 3 3 2 2 2 2 2 2 2 3 3 3 3 4 3 3 2 2 2 2 2 2 2 2
4 5 7 7 5 5 5 4 2 2 2 3 3 3 2 2 2 2 2 2 2 2 2 2 3 3 3 3 3 3 2 2 2 2 2 2 2 2
3 2 2 2 2 2 2 2 2 2 2 2 2 2 2 2 2 2 2 2 2 2 2 2 1 1 2 2 2 3 2 2 2 2 2 2 2 3
3 2 2 2 2 3 3 3 2 2 2 2 2 2 2 2 2 2 2 2 2 2 2 2 1 1 1 1 2 3 2 2 1 2 2 2 3 2
2 2 2 3 3 2 2 3 3 3 2 2 3 2 2 2 2 2 2 2 2 2 2 1 1 1 1 2 2 2 2 2 1 1 2 2 3 3
2 2 3 3 3 3 3 3 3 3 2 2 3 3 2 2 2 2 2 2 2 2 1 1 1 2 2 2 2 2 3 2 2 2 2 2 2 3
2 2 3 3 3 3 3 3 3 3 3 3 3 3 3 2 2 2 2 3 2 1 2 2 2 3 1 0 0 1 2 2 2 2 1 1 1 1
3 3 3 3 3 3 3 3 3 3 3 3 3 3 3 3 3 3 3 2 2 2 2 2 1 0 0 1 1 1 1 2 2 2 1 2 1 2
3 3 3 3 3 3 3 3 4 4 3 3 3 3 3 3 2 2 2 2 2 1 1 1 1 1 0 1 1 0 1 1 1 2 2 2 2 1
Wind_Direction
246 248 251 256 254 252 247 236 249 272 271 250 248 252 260 263 272 264 259 270 273 270 268 267 265 264 264 266 269 270 268 267 271 273 272 278 283 287
251 249 252 255 258 255 250 251 246 253 269 260 248 261 265 277 282 275 266 281 275 272 268 267 265 263 261 263 263 259 262 261 264 270 268 271 277 283
268 260 260 260 259 259 254 251 250 248 264 277 265 268 259 267 280 271 268 256 258 267 268 266 263 262 261 259 258 260 262 263 262 267 268 271 277 281
264 264 266 266 261 260 256 252 251 247 254 272 280 273 263 266 269 271 278 277 261 266 265 266 263 257 256 254 254 257 261 266 266 267 274 274 278 282
265 262 263 263 266 262 258 257 254 257 251 260 273 274 271 275 278 282 277 271 274 271 263 262 262 260 256 255 254 255 260 263 266 270 277 280 280 284
271 268 269 265 265 264 263 259 256 256 253 255 265 273 274 274 262 275 285 274 276 274 268 270 265 260 258 256 254 257 260 263 265 271 277 282 280 284
283 280 277 281 282 278 273 263 256 257 258 258 264 273 272 272 260 260 273 285 285 256 261 266 262 250 245 249 254 254 254 257 261 267 275 275 274 278
287 287 286 283 283 289 287 284 277 266 260 257 263 265 265 261 259 258 261 278 279 246 241 266 242 247 254 239 248 259 259 258 259 263 269 270 271 275
281 288 292 292 295 279 282 283 281 280 274 261 260 262 264 259 253 255 253 259 262 258 256 267 243 253 262 262 262 260 259 261 261 262 267 268 270 272
280 279 283 289 290 289 280 276 270 272 270 263 258 261 262 258 243 246 251 269 297 281 228 251 253 258 272 257 257 258 261 265 268 267 268 268 267 267
287 283 281 278 293 296 288 281 280 280 285 285 288 291 291 288 276 258 256 266 282 274 248 236 258 285 277 257 258 260 267 269 268 267 267 269 268 267
292 289 292 296 298 296 278 271 278 284 290 294 296 299 295 293 287 251 231 243 272 266 236 222 235 281 291 272 252 260 264 266 266 267 266 265 264 258
293 296 296 310 306 302 295 278 284 292 284 281 288 293 298 296 285 271 249 234 240 257 230 207 219 216 227 272 276 256 256 260 258 261 260 265 269 258
287 288 294 309 313 308 300 304 305 302 290 288 290 290 294 295 293 282 277 268 255 250 238 224 230 219 223 252 264 270 264 264 258 256 254 257 258 262
291 302 312 314 312 310 314 311 306 293 286 288 284 284 286 283 287 291 293 297 305 291 251 243 234 229 229 235 247 256 271 273 257 255 259 254 251 243
304 308 314 319 321 322 321 315 305 289 280 274 282 287 291 287 280 284 288 289 299 309 301 266 240 227 230 241 238 250 245 249 248 253 261 266 260 242
304 302 311 313 321 317 315 312 308 306 295 289 283 291 294 291 295 301 289 289 272 286 309 318 297 259 247 232 236 240 242 249 249 248 260 275 263 246
318 305 308 308 305 306 310 315 314 309 303 296 289 283 280 281 291 299 290 278 277 285 290 290 299 336 333 300 244 230 238 244 251 255 253 261 270 258
327 310 304 302 302 303 303 304 304 302 296 289 285 283 280 277 277 281 284 285 282 288 297 289 267 229 252 284 298 246 235 255 253 261 250 247 259 266
310 298 300 300 300 301 300 297 296 297 294 289 286 281 275 273 272 272 270 272 272 281 297 291 263 244 232 242 264 285 263 240 233 247 261 271 282 284
309 299 294 294 295 298 297 294 289 288 291 287 287 289 281 272 269 272 272 276 271 263 269 276 272 284 288 90 304 302 298 283 258 237 235 255 293 308
302 296 295 293 289 286 286 288 291 289 286 282 282 282 282 274 269 270 271 268 260 262 272 290 313 16 109 186 251 285 313 331 336 333 281 217 194 212
309 298 291 290 288 285 281 280 281 284 284 280 279 278 278 278 277 271 268 260 255 259 274 290 15 49 69 180 191 276 348 354 15 24 9 5 10 352